Location: Ahausen
(50.4985°N, 8.2722°E)
Time: 02:07:47
(UTC+00:00)

ITUPSAT 1 - Pass Details

Date: 30 June 2022
Orbit: 701 x 711 km, 98.6° (Epoch: 11 August)

Event Time Altitude Azimuth Distance (km) Brightness Sun altitude
Rises 21:44:32 0° 3° (N) 3,112 ? -12.7°
Reaches altitude 10° 21:47:35 10° 342° (NNW) 2,190 ? -12.9°
Maximum altitude 21:50:25 16° 305° (NW) 1,817 ? -13.1°
Drops below altitude 10° 21:53:15 10° 269° (W) 2,186 ? -13.3°
Sets 21:56:18 0° 248° (WSW) 3,102 ? -13.5°
